MIDAS 5 DEB, 18603

Orbit data source: Space-Track

MIDAS 5 DEB, 18603 is space debris in LEO originally from a launch on Mon, 09 Apr 1962 UTC via an ATLAS AGENA B launch vehicle from the Air Force Western Test Range (AFWTR). Debris objects in space refer to the collection of defunct objects orbiting the Earth. Examples of debris include non-operational satellites, rocket bodies, and fragments generated from explosions, collisions, or faulty payload assembly.

Loading next visibility...
Identifier
18603, 1962-010G
Orbit
LEO
Country
Flag of USUS
Related business
Manufacturer
MIT-LL
Mission
Spacecraft
Bus & Motor
WESTFORD DRAG, Unknown motor
Mass
~1 kg wet, ~1 kg dry
Launch date (UTC)
1962-04-09 (64 years ago)
Launch vehicle
ATLAS AGENA B
Launch site
Air Force Western Test Range (AFWTR)
Object type
Payload
Rocket body
Debris
Shape & HBR
Unknown
Radar Cross Section
Medium (>0.1 m² and <1 m²)

Expand to show TLE details & history
Last TLE update: 3 days ago

TLE from 3 days ago
0 MIDAS 5 DEB
1 18603U 62010G   26034.86012155 -.00000038  00000-0 -85691-2 0  9994
2 18603  86.6949 345.3976 0285366 225.5623 161.1057  9.41008895366004
Epoch: 2026-02-03T20:38Z
TLE epoch observation values (Epoch: 2026-02-03T20:38:34.501Z)
Latitude
27.66964°
Longitude
-96.55296°
Altitude
3,358.517 km
Speed
6.314 km/s
True Right ascension
23h 08m 30s
True Declination
27° 33' 58"
Sunlit
Object was in daylight at epoch
Visualization orbit readout
Latitude
Unknown
Longitude
Unknown
Altitude
Unknown
Speed
Unknown
Apparent Right ascension
Unknown
Apparent Declination
Unknown
Sunlit
N/A
Visualization observer readout
Local Sidereal Time
08:36:52
Azimuth
Unknown
Elevation
Unknown
Doppler factor
Unknown
Orbital elements
Apogee altitude
3,366.982 km
Perigee altitude
2,826.229 km
Semi-major axis
9,474.742 km
Eccentricity
0.02854
Inclination
86.6949°
RAAN
345.3976°
Arg. of periapsis
225.5623°
True anomaly
162.12995°
Mean anomaly
161.1057°
Eccentric anomaly
161.62122°
Mean motion
2.35338 °/min
Orbital period
152.97 mins
BSTAR
-0.0085691
Loading maneuver chart data...
Computing Atmospheric mass density...
Loading historical data...
Loading historical data...
Loading historical data...
Loading historical data...
Loading historical data...
Loading historical data...
Loading historical data...

Documentation

Showing up to 5 results
|